GEFSMA_prec_meanprecacc_264.txt.gz
Total_Precipitation_Accumulation
2.08 2.22 2.20 2.40 2.35 2.41 2.65 3.03 3.06 3.26 3.33 3.32 3.12 2.77 2.69 2.53 2.30 2.41 2.49 2.37 2.29 2.54 3.09 3.50 3.39 3.15 2.84 2.77 2.69 2.50 2.18 1.99 1.80 1.47 1.27 1.29 1.26 1.17 1.10 1.06 0.95 0.85 0.68
2.65 2.86 2.85 2.88 2.63 2.61 2.90 3.18 3.29 3.82 3.79 3.68 3.23 2.97 2.82 2.74 2.50 2.40 2.58 2.66 2.34 2.31 2.73 3.46 3.75 3.56 3.33 3.26 3.04 2.73 2.42 2.17 2.03 1.59 1.28 1.22 1.28 1.28 1.22 1.18 0.99 0.83 0.65
3.06 3.25 3.17 3.03 2.95 2.91 3.14 3.38 3.56 3.76 3.62 3.48 3.33 3.14 3.03 2.83 2.45 2.44 2.48 2.67 2.52 2.35 2.62 3.06 3.52 3.62 3.68 3.73 3.48 3.16 2.72 2.35 2.08 1.70 1.31 1.15 1.18 1.19 1.17 1.16 1.02 0.81 0.58
3.21 3.56 3.33 3.13 3.43 3.22 3.40 3.90 3.96 3.97 3.98 3.75 3.57 3.27 3.09 2.90 2.44 2.33 2.33 2.60 2.94 2.53 2.64 3.00 3.22 3.34 3.81 4.11 4.05 3.85 3.35 2.78 2.24 1.83 1.46 1.32 1.29 1.23 1.17 1.08 1.03 0.82 0.57
3.09 3.42 3.32 3.36 3.40 3.65 3.70 3.46 4.07 4.15 4.08 3.89 3.32 3.10 2.75 2.59 2.51 2.24 2.36 2.46 2.81 2.64 2.62 2.72 3.00 3.20 3.79 4.45 4.80 4.65 4.20 3.61 2.91 2.38 2.12 1.96 1.86 1.64 1.37 1.19 1.02 0.86 0.64
2.95 3.39 3.24 3.21 3.30 3.65 3.67 3.67 4.07 4.09 3.87 3.84 3.09 2.82 2.64 2.26 2.25 2.32 2.18 2.35 2.51 2.18 2.33 2.64 3.11 2.80 3.07 3.55 4.44 4.86 4.83 4.53 3.97 3.64 3.44 3.10 2.81 2.36 1.76 1.38 1.13 0.98 0.80
2.79 3.24 3.01 3.33 3.26 3.39 3.45 3.48 3.77 3.91 3.59 3.66 3.63 3.14 2.46 2.06 2.04 2.05 2.09 2.23 2.22 2.29 2.75 3.21 3.33 3.23 3.07 2.97 3.33 3.95 4.72 4.95 4.48 4.05 3.96 3.91 3.74 3.08 2.27 1.73 1.36 1.12 0.99
2.64 2.82 3.06 2.97 3.02 3.21 3.23 3.30 3.62 3.61 3.24 3.38 3.64 3.68 2.94 2.59 2.13 1.65 1.97 2.08 2.15 2.48 2.67 2.81 3.16 3.44 3.51 3.80 3.26 3.11 3.80 4.43 4.52 4.23 3.92 3.98 3.91 3.21 2.51 2.17 1.76 1.36 1.22
2.50 2.58 2.76 2.79 2.82 2.72 2.95 3.20 3.17 3.22 3.16 3.12 3.20 3.60 3.29 2.87 2.41 1.88 1.74 1.85 2.15 2.41 2.42 2.61 2.66 2.93 3.15 3.71 3.74 3.31 3.08 3.23 3.78 4.37 4.30 4.03 3.73 3.13 2.67 2.47 2.23 1.83 1.58
2.28 2.33 2.40 2.40 2.45 2.45 2.74 2.55 2.61 2.92 3.16 3.02 2.94 2.93 2.99 3.08 2.95 2.35 1.88 1.79 2.02 2.17 2.19 2.15 2.36 2.67 2.75 3.04 3.31 3.28 2.90 2.53 2.81 3.52 4.08 4.09 3.73 3.10 2.77 2.74 2.89 2.69 2.16
2.13 2.05 2.21 2.27 2.26 2.22 2.33 2.41 2.71 2.72 2.86 2.84 2.80 2.82 2.94 2.97 2.78 2.61 2.28 2.10 2.03 1.84 1.85 1.98 2.17 2.50 2.65 2.79 3.05 3.08 3.04 2.49 2.38 2.54 2.99 3.41 3.54 3.41 3.08 3.05 3.39 3.51 3.14
1.95 1.94 2.03 2.24 2.17 2.13 2.25 2.34 2.44 2.46 2.56 2.65 2.61 2.61 2.83 2.71 2.64 2.75 2.46 2.32 2.22 1.91 1.87 1.94 2.05 2.27 2.39 2.47 2.37 2.61 2.53 2.19 1.99 1.89 1.90 2.21 2.63 2.92 3.05 3.22 3.62 3.87 3.84
1.72 1.71 1.82 1.98 1.96 1.97 2.09 2.24 2.26 2.36 2.48 2.51 2.43 2.44 2.51 2.45 2.50 2.66 2.79 2.55 2.37 2.02 2.01 1.92 1.92 2.12 2.10 2.32 2.26 2.05 1.76 1.66 1.54 1.43 1.43 1.52 1.73 2.03 2.27 2.58 3.06 3.49 3.68
1.56 1.63 1.71 1.73 1.80 1.85 1.87 2.21 2.27 2.34 2.45 2.38 2.23 2.53 2.43 2.21 2.34 2.52 2.78 3.00 2.83 2.40 2.35 2.18 1.94 1.89 2.00 2.07 1.98 1.74 1.41 1.36 1.24 1.17 1.16 1.22 1.34 1.47 1.61 1.80 2.11 2.38 2.65
1.75 1.77 1.74 1.76 1.84 1.96 2.10 2.34 2.40 2.38 2.46 2.41 2.46 2.58 2.40 2.22 2.22 2.27 2.67 3.00 3.19 2.87 2.61 2.41 2.18 1.87 1.85 1.76 1.78 1.58 1.53 1.38 1.16 1.10 1.06 1.01 1.06 1.17 1.30 1.39 1.50 1.64 1.74
1.93 1.92 1.92 1.90 1.87 1.96 2.15 2.33 2.38 2.38 2.46 2.50 2.55 2.66 2.63 2.43 2.42 2.40 2.65 2.95 3.16 3.25 2.82 2.50 2.43 2.09 1.91 1.65 1.78 1.60 1.48 1.43 1.18 1.05 1.04 0.98 0.97 1.00 1.05 1.12 1.18 1.24 1.33
1.82 1.76 1.74 1.75 1.77 1.85 1.96 2.04 2.02 2.07 2.10 2.23 2.21 2.35 2.48 2.59 2.58 2.59 2.75 2.89 3.11 3.33 2.93 2.71 2.84 2.64 2.37 2.08 1.87 1.73 1.52 1.40 1.24 1.12 0.98 0.96 0.95 0.95 0.99 1.03 1.04 1.10 1.17
1.51 1.42 1.47 1.52 1.52 1.53 1.61 1.60 1.59 1.71 1.88 2.08 2.23 2.35 2.27 2.36 2.38 2.42 2.62 2.83 3.07 3.27 3.11 3.02 3.20 3.14 2.83 2.43 2.24 2.05 1.66 1.43 1.34 1.31 1.10 0.96 0.96 0.97 0.96 1.01 1.05 1.05 1.07
1.19 1.19 1.27 1.34 1.34 1.36 1.34 1.35 1.45 1.56 1.70 1.88 2.05 2.07 1.98 2.06 2.10 2.29 2.38 2.54 2.78 3.01 3.08 3.03 3.17 3.21 2.92 2.64 2.49 2.12 1.84 1.77 1.46 1.43 1.31 1.11 1.00 0.98 1.00 1.00 1.00 1.02 1.02
1.13 1.17 1.28 1.34 1.33 1.38 1.43 1.56 1.65 1.70 1.77 1.78 1.75 1.72 1.68 1.75 1.88 2.12 2.22 2.31 2.47 2.69 2.80 2.87 3.03 3.07 2.91 2.81 2.74 2.36 2.12 2.00 1.75 1.46 1.44 1.23 1.12 1.03 0.98 0.95 0.96 1.00 1.07
1.14 1.20 1.33 1.43 1.49 1.47 1.38 1.57 1.70 1.65 1.71 1.70 1.61 1.46 1.35 1.44 1.56 1.71 1.68 1.91 2.12 2.32 2.44 2.59 2.79 2.99 2.84 2.82 2.65 2.48 2.26 2.16 2.03 1.75 1.69 1.42 1.24 1.10 0.96 0.92 0.93 0.99 1.13
1.21 1.21 1.22 1.31 1.30 1.09 1.20 1.37 1.49 1.53 1.62 1.66 1.54 1.39 1.26 1.26 1.33 1.40 1.43 1.50 1.67 1.89 2.08 2.37 2.57 2.73 2.60 2.54 2.63 2.60 2.50 2.28 2.16 2.01 2.10 1.95 1.68 1.52 1.23 0.97 0.93 0.96 1.08
1.24 1.27 1.26 1.28 1.25 1.20 1.26 1.24 1.24 1.35 1.48 1.50 1.55 1.54 1.28 1.06 1.21 1.20 1.28 1.28 1.36 1.48 1.69 2.01 2.20 2.28 2.42 2.40 2.64 2.71 2.79 2.67 2.49 2.37 2.50 2.47 2.30 2.11 1.49 1.27 1.22 1.03 1.00
1.29 1.32 1.32 1.30 1.35 1.33 1.32 1.19 1.21 1.22 1.35 1.43 1.44 1.42 1.39 1.32 1.23 1.20 1.24 1.26 1.16 1.21 1.36 1.41 1.59 1.88 2.36 2.62 2.64 2.68 2.90 2.87 2.64 2.54 2.63 2.71 2.49 2.40 1.91 1.48 1.27 1.00 0.90
1.31 1.29 1.28 1.23 1.24 1.33 1.36 1.24 1.19 1.18 1.32 1.40 1.40 1.36 1.32 1.31 1.32 1.19 1.22 1.22 1.15 1.12 1.18 1.28 1.39 1.61 1.89 2.21 2.40 2.45 2.54 2.68 2.71 2.64 2.64 2.77 2.69 2.60 2.57 2.23 1.64 1.26 0.98
1.47 1.43 1.36 1.31 1.29 1.32 1.32 1.14 1.08 1.07 1.19 1.28 1.37 1.28 1.16 1.08 1.12 1.07 1.14 1.22 1.13 1.11 1.17 1.18 1.20 1.28 1.44 1.63 1.72 1.68 1.79 1.98 2.15 2.32 2.26 2.48 2.74 2.82 3.01 2.93 2.39 1.78 1.38

GEFSMA_prec_meanprecacc_270.txt.gz
Total_Precipitation_Accumulation
2.15 2.29 2.28 2.50 2.43 2.49 2.72 3.12 3.14 3.34 3.40 3.38 3.18 2.82 2.75 2.59 2.34 2.44 2.52 2.39 2.31 2.57 3.13 3.55 3.44 3.19 2.88 2.81 2.74 2.57 2.26 2.06 1.88 1.54 1.35 1.37 1.34 1.24 1.16 1.10 1.00 0.89 0.71
2.70 2.95 2.94 2.98 2.71 2.69 2.98 3.26 3.38 3.92 3.89 3.76 3.30 3.03 2.89 2.80 2.55 2.44 2.62 2.70 2.37 2.34 2.77 3.52 3.81 3.61 3.37 3.30 3.09 2.80 2.50 2.26 2.15 1.70 1.36 1.28 1.35 1.36 1.30 1.24 1.04 0.87 0.69
3.10 3.31 3.24 3.11 3.02 2.98 3.21 3.47 3.65 3.87 3.70 3.56 3.41 3.24 3.11 2.88 2.49 2.48 2.52 2.72 2.57 2.39 2.67 3.11 3.57 3.67 3.73 3.78 3.55 3.22 2.78 2.42 2.16 1.79 1.37 1.20 1.25 1.27 1.25 1.22 1.06 0.84 0.62
3.24 3.62 3.40 3.21 3.50 3.27 3.46 3.98 4.03 4.05 4.05 3.82 3.65 3.35 3.16 2.98 2.50 2.38 2.37 2.65 3.00 2.58 2.67 3.03 3.26 3.38 3.86 4.17 4.12 3.91 3.42 2.86 2.33 1.93 1.54 1.39 1.41 1.35 1.26 1.16 1.08 0.86 0.60
3.12 3.46 3.37 3.43 3.46 3.69 3.76 3.51 4.12 4.23 4.16 3.96 3.38 3.16 2.81 2.66 2.56 2.28 2.40 2.50 2.86 2.68 2.66 2.74 3.02 3.23 3.83 4.51 4.87 4.73 4.30 3.70 2.99 2.47 2.20 2.05 2.01 1.79 1.48 1.28 1.09 0.91 0.68
2.99 3.44 3.28 3.26 3.34 3.71 3.76 3.76 4.15 4.16 3.93 3.91 3.13 2.86 2.69 2.31 2.30 2.36 2.21 2.38 2.55 2.21 2.36 2.67 3.15 2.83 3.10 3.58 4.49 4.95 4.94 4.64 4.06 3.74 3.52 3.18 2.90 2.45 1.84 1.45 1.19 1.04 0.85
2.83 3.31 3.06 3.39 3.32 3.46 3.54 3.54 3.84 3.97 3.65 3.72 3.68 3.19 2.51 2.10 2.07 2.08 2.13 2.26 2.25 2.32 2.78 3.24 3.37 3.28 3.11 3.01 3.37 4.02 4.82 5.08 4.61 4.17 4.08 4.00 3.82 3.17 2.36 1.81 1.42 1.18 1.04
2.70 2.89 3.13 3.05 3.09 3.28 3.31 3.37 3.69 3.68 3.30 3.43 3.69 3.75 3.01 2.64 2.16 1.67 1.99 2.11 2.18 2.51 2.69 2.84 3.18 3.48 3.55 3.86 3.31 3.17 3.88 4.56 4.69 4.40 4.06 4.10 4.02 3.32 2.60 2.24 1.84 1.42 1.28
2.55 2.64 2.81 2.85 2.88 2.78 3.01 3.26 3.24 3.28 3.23 3.20 3.26 3.67 3.36 2.93 2.45 1.91 1.77 1.88 2.19 2.45 2.45 2.63 2.68 2.96 3.19 3.77 3.81 3.38 3.18 3.39 3.94 4.52 4.44 4.14 3.85 3.25 2.79 2.59 2.34 1.92 1.66
2.33 2.42 2.47 2.46 2.51 2.49 2.79 2.59 2.65 2.98 3.23 3.10 3.01 2.98 3.04 3.13 3.00 2.39 1.91 1.83 2.05 2.21 2.22 2.17 2.39 2.70 2.78 3.08 3.38 3.36 3.02 2.70 2.96 3.64 4.19 4.23 3.88 3.26 2.93 2.90 3.04 2.81 2.27
2.21 2.13 2.27 2.31 2.30 2.26 2.37 2.45 2.77 2.77 2.90 2.91 2.89 2.89 3.00 3.01 2.83 2.65 2.31 2.13 2.06 1.87 1.88 2.02 2.21 2.53 2.68 2.84 3.10 3.16 3.17 2.68 2.62 2.76 3.17 3.59 3.74 3.61 3.27 3.20 3.53 3.64 3.27
2.02 1.97 2.05 2.27 2.21 2.16 2.28 2.38 2.49 2.51 2.61 2.71 2.69 2.68 2.91 2.77 2.69 2.79 2.50 2.36 2.26 1.95 1.91 1.99 2.10 2.32 2.45 2.54 2.45 2.75 2.73 2.44 2.27 2.17 2.16 2.45 2.86 3.12 3.24 3.39 3.77 4.02 4.00
1.76 1.73 1.85 2.01 1.99 2.00 2.12 2.27 2.30 2.40 2.53 2.57 2.49 2.50 2.58 2.54 2.57 2.71 2.83 2.59 2.40 2.06 2.04 1.95 1.96 2.17 2.16 2.40 2.36 2.21 1.95 1.88 1.78 1.67 1.70 1.78 1.95 2.20 2.42 2.73 3.21 3.64 3.83
1.59 1.65 1.72 1.74 1.82 1.87 1.89 2.25 2.30 2.38 2.49 2.43 2.27 2.60 2.50 2.29 2.42 2.58 2.84 3.05 2.87 2.44 2.38 2.23 2.00 1.94 2.06 2.14 2.08 1.87 1.55 1.50 1.37 1.30 1.29 1.36 1.48 1.60 1.73 1.91 2.21 2.47 2.76
1.77 1.78 1.75 1.77 1.85 1.98 2.12 2.38 2.43 2.42 2.49 2.45 2.50 2.63 2.46 2.28 2.28 2.34 2.75 3.09 3.26 2.93 2.67 2.48 2.26 1.94 1.91 1.83 1.86 1.65 1.62 1.47 1.24 1.18 1.13 1.09 1.14 1.26 1.39 1.47 1.57 1.69 1.78
1.95 1.93 1.93 1.92 1.88 1.97 2.16 2.36 2.40 2.40 2.48 2.53 2.58 2.69 2.66 2.47 2.46 2.45 2.72 3.03 3.23 3.31 2.89 2.58 2.51 2.18 1.98 1.71 1.86 1.68 1.57 1.51 1.24 1.12 1.09 1.02 1.01 1.06 1.10 1.17 1.22 1.28 1.36
1.84 1.78 1.75 1.76 1.78 1.86 1.98 2.06 2.03 2.08 2.12 2.27 2.23 2.37 2.52 2.63 2.62 2.63 2.78 2.93 3.15 3.37 2.99 2.77 2.89 2.71 2.42 2.14 1.95 1.83 1.61 1.48 1.32 1.19 1.03 0.99 0.99 1.00 1.04 1.08 1.08 1.13 1.20
1.53 1.44 1.48 1.53 1.53 1.54 1.62 1.61 1.60 1.72 1.90 2.10 2.25 2.37 2.30 2.39 2.42 2.46 2.65 2.88 3.10 3.32 3.16 3.07 3.25 3.19 2.89 2.51 2.34 2.17 1.75 1.53 1.42 1.38 1.15 1.00 1.01 1.02 1.01 1.07 1.10 1.08 1.10
1.21 1.21 1.29 1.35 1.35 1.37 1.35 1.35 1.45 1.57 1.71 1.89 2.07 2.09 2.00 2.10 2.14 2.33 2.42 2.58 2.82 3.06 3.13 3.07 3.21 3.26 3.00 2.76 2.61 2.24 1.94 1.86 1.53 1.49 1.38 1.17 1.06 1.05 1.07 1.07 1.07 1.08 1.06
1.15 1.18 1.29 1.36 1.35 1.39 1.44 1.58 1.66 1.71 1.78 1.79 1.76 1.73 1.69 1.77 1.92 2.16 2.25 2.34 2.50 2.72 2.85 2.92 3.08 3.12 2.97 2.89 2.82 2.47 2.21 2.08 1.81 1.52 1.49 1.29 1.19 1.10 1.06 1.02 1.03 1.07 1.13
1.15 1.20 1.33 1.43 1.50 1.47 1.39 1.58 1.72 1.66 1.72 1.71 1.62 1.47 1.37 1.46 1.59 1.73 1.70 1.94 2.15 2.36 2.48 2.65 2.85 3.06 2.92 2.90 2.74 2.58 2.36 2.26 2.11 1.81 1.74 1.47 1.30 1.17 1.05 1.01 1.01 1.07 1.20
1.23 1.21 1.22 1.32 1.31 1.10 1.20 1.37 1.50 1.54 1.63 1.67 1.56 1.42 1.28 1.29 1.35 1.41 1.44 1.52 1.70 1.92 2.13 2.41 2.61 2.78 2.67 2.63 2.75 2.71 2.60 2.37 2.25 2.09 2.15 2.01 1.74 1.57 1.29 1.03 0.99 1.01 1.12
1.26 1.27 1.26 1.28 1.25 1.21 1.26 1.25 1.25 1.36 1.49 1.51 1.56 1.56 1.30 1.08 1.23 1.22 1.30 1.31 1.38 1.51 1.73 2.05 2.25 2.34 2.49 2.49 2.75 2.82 2.91 2.78 2.59 2.46 2.57 2.53 2.36 2.16 1.53 1.31 1.25 1.06 1.01
1.30 1.33 1.33 1.30 1.35 1.34 1.32 1.19 1.21 1.22 1.36 1.44 1.45 1.43 1.41 1.34 1.25 1.23 1.26 1.28 1.18 1.23 1.39 1.44 1.62 1.92 2.40 2.67 2.69 2.74 2.98 2.96 2.72 2.60 2.68 2.76 2.55 2.45 1.95 1.51 1.29 1.01 0.91
1.31 1.30 1.29 1.24 1.25 1.34 1.36 1.24 1.20 1.18 1.33 1.40 1.41 1.37 1.33 1.33 1.34 1.20 1.24 1.24 1.18 1.14 1.20 1.31 1.42 1.63 1.92 2.25 2.44 2.50 2.59 2.73 2.76 2.69 2.70 2.83 2.74 2.63 2.59 2.25 1.65 1.28 0.99
1.48 1.44 1.36 1.31 1.30 1.33 1.32 1.14 1.09 1.07 1.19 1.28 1.37 1.29 1.17 1.11 1.15 1.09 1.17 1.25 1.16 1.12 1.18 1.20 1.21 1.30 1.46 1.65 1.76 1.73 1.84 2.03 2.22 2.38 2.32 2.53 2.78 2.86 3.04 2.95 2.40 1.79 1.38

GEFSMA_prec_meanprecacc_276.txt.gz
Total_Precipitation_Accumulation
2.24 2.40 2.44 2.70 2.60 2.60 2.83 3.23 3.23 3.44 3.49 3.45 3.24 2.86 2.79 2.62 2.38 2.47 2.55 2.41 2.32 2.59 3.16 3.58 3.48 3.24 2.91 2.83 2.77 2.60 2.30 2.10 1.92 1.58 1.38 1.40 1.38 1.29 1.21 1.16 1.05 0.94 0.76
2.77 3.03 3.05 3.12 2.85 2.79 3.08 3.35 3.48 4.03 4.00 3.86 3.37 3.09 2.94 2.85 2.60 2.47 2.66 2.75 2.40 2.36 2.80 3.55 3.85 3.66 3.41 3.33 3.12 2.83 2.54 2.31 2.22 1.79 1.45 1.37 1.43 1.43 1.35 1.30 1.09 0.91 0.73
3.19 3.42 3.36 3.24 3.16 3.09 3.37 3.61 3.76 3.98 3.79 3.66 3.54 3.34 3.19 2.95 2.54 2.52 2.57 2.77 2.61 2.42 2.69 3.13 3.60 3.72 3.78 3.83 3.59 3.26 2.83 2.47 2.21 1.87 1.47 1.33 1.39 1.40 1.32 1.28 1.11 0.90 0.67
3.38 3.80 3.56 3.35 3.63 3.40 3.61 4.16 4.17 4.20 4.18 3.93 3.76 3.43 3.23 3.05 2.55 2.42 2.41 2.69 3.06 2.64 2.71 3.06 3.29 3.41 3.90 4.22 4.17 3.97 3.47 2.91 2.37 1.98 1.60 1.45 1.47 1.42 1.32 1.21 1.14 0.92 0.67
3.24 3.62 3.50 3.54 3.57 3.84 3.91 3.65 4.28 4.42 4.30 4.07 3.46 3.24 2.88 2.73 2.63 2.34 2.46 2.56 2.92 2.74 2.71 2.78 3.06 3.26 3.86 4.56 4.93 4.80 4.37 3.76 3.05 2.52 2.25 2.09 2.05 1.85 1.54 1.35 1.16 0.99 0.75
3.09 3.55 3.38 3.35 3.42 3.82 3.87 3.86 4.30 4.31 4.04 4.00 3.18 2.94 2.77 2.37 2.36 2.42 2.26 2.44 2.62 2.27 2.43 2.74 3.21 2.87 3.14 3.63 4.54 5.01 5.01 4.72 4.13 3.80 3.59 3.24 2.96 2.52 1.91 1.51 1.26 1.12 0.91
2.91 3.40 3.14 3.47 3.40 3.56 3.63 3.63 3.95 4.09 3.75 3.81 3.77 3.28 2.59 2.17 2.12 2.12 2.17 2.33 2.32 2.38 2.86 3.34 3.47 3.36 3.18 3.05 3.42 4.07 4.90 5.17 4.69 4.24 4.15 4.06 3.88 3.24 2.43 1.88 1.50 1.24 1.10
2.75 2.95 3.19 3.11 3.16 3.36 3.37 3.43 3.78 3.78 3.38 3.52 3.78 3.84 3.10 2.74 2.22 1.70 2.03 2.16 2.23 2.56 2.75 2.89 3.25 3.57 3.64 3.94 3.37 3.22 3.95 4.65 4.76 4.49 4.16 4.17 4.09 3.40 2.70 2.35 1.93 1.51 1.35
2.57 2.68 2.86 2.90 2.93 2.82 3.06 3.31 3.31 3.37 3.31 3.27 3.33 3.77 3.47 3.04 2.54 1.96 1.80 1.91 2.23 2.50 2.50 2.67 2.71 3.00 3.25 3.87 3.91 3.44 3.23 3.45 4.01 4.60 4.54 4.22 3.93 3.33 2.88 2.68 2.44 2.02 1.76
2.34 2.44 2.51 2.51 2.56 2.55 2.86 2.63 2.71 3.05 3.31 3.17 3.08 3.04 3.11 3.22 3.10 2.47 1.97 1.86 2.07 2.24 2.25 2.19 2.41 2.73 2.83 3.17 3.49 3.43 3.07 2.75 3.03 3.74 4.30 4.32 3.96 3.35 3.03 3.00 3.15 2.94 2.40
2.22 2.14 2.30 2.37 2.36 2.31 2.42 2.49 2.81 2.82 2.97 2.98 2.96 2.96 3.06 3.08 2.91 2.73 2.38 2.20 2.13 1.91 1.90 2.03 2.23 2.56 2.74 2.92 3.20 3.23 3.25 2.75 2.73 2.90 3.30 3.70 3.84 3.71 3.37 3.30 3.63 3.75 3.39
2.04 1.99 2.09 2.31 2.24 2.20 2.32 2.41 2.52 2.54 2.65 2.76 2.75 2.74 2.97 2.83 2.76 2.86 2.57 2.42 2.31 1.99 1.93 2.01 2.13 2.35 2.48 2.60 2.51 2.81 2.82 2.54 2.40 2.32 2.32 2.60 3.01 3.28 3.39 3.55 3.93 4.17 4.15
1.78 1.76 1.87 2.05 2.03 2.04 2.15 2.31 2.33 2.43 2.56 2.60 2.53 2.54 2.61 2.57 2.62 2.77 2.89 2.64 2.44 2.10 2.07 1.98 1.99 2.20 2.19 2.45 2.44 2.32 2.05 1.98 1.87 1.78 1.84 1.91 2.11 2.41 2.65 2.98 3.49 3.89 4.06
1.62 1.68 1.75 1.77 1.84 1.89 1.91 2.28 2.32 2.41 2.52 2.45 2.29 2.64 2.54 2.32 2.46 2.62 2.89 3.11 2.92 2.50 2.43 2.28 2.04 1.97 2.08 2.19 2.18 1.97 1.63 1.58 1.45 1.39 1.38 1.43 1.56 1.71 1.86 2.06 2.37 2.63 2.93
1.79 1.79 1.76 1.78 1.86 1.99 2.14 2.40 2.45 2.45 2.52 2.48 2.53 2.66 2.51 2.32 2.31 2.38 2.79 3.14 3.33 3.01 2.74 2.56 2.33 2.01 1.96 1.90 1.95 1.74 1.70 1.55 1.31 1.24 1.19 1.14 1.20 1.33 1.46 1.55 1.65 1.77 1.87
1.97 1.96 1.94 1.93 1.89 1.98 2.18 2.38 2.42 2.42 2.51 2.56 2.62 2.74 2.71 2.50 2.48 2.48 2.75 3.07 3.29 3.40 2.99 2.67 2.60 2.26 2.04 1.79 1.94 1.76 1.67 1.60 1.30 1.16 1.14 1.06 1.04 1.09 1.13 1.21 1.27 1.33 1.40
1.86 1.80 1.76 1.78 1.80 1.88 2.00 2.10 2.05 2.11 2.15 2.31 2.28 2.43 2.57 2.68 2.66 2.66 2.82 2.98 3.21 3.46 3.08 2.86 2.97 2.78 2.49 2.21 2.02 1.90 1.69 1.55 1.37 1.23 1.07 1.02 1.01 1.02 1.07 1.11 1.12 1.17 1.23
1.56 1.46 1.51 1.56 1.55 1.56 1.66 1.64 1.63 1.77 1.95 2.15 2.30 2.43 2.35 2.44 2.48 2.50 2.70 2.94 3.17 3.39 3.24 3.15 3.32 3.25 2.95 2.58 2.40 2.23 1.84 1.60 1.49 1.45 1.21 1.05 1.04 1.05 1.04 1.10 1.13 1.13 1.13
1.25 1.25 1.32 1.38 1.38 1.40 1.38 1.39 1.50 1.63 1.77 1.95 2.12 2.14 2.05 2.16 2.19 2.38 2.48 2.64 2.87 3.11 3.20 3.13 3.26 3.31 3.04 2.80 2.66 2.29 2.02 1.96 1.62 1.57 1.45 1.23 1.11 1.09 1.11 1.11 1.11 1.13 1.12
1.19 1.22 1.33 1.39 1.38 1.42 1.47 1.61 1.70 1.75 1.83 1.84 1.80 1.77 1.73 1.81 1.96 2.21 2.31 2.40 2.56 2.78 2.90 2.96 3.11 3.15 3.01 2.92 2.87 2.52 2.30 2.19 1.91 1.58 1.56 1.35 1.24 1.15 1.10 1.06 1.08 1.13 1.20
1.18 1.24 1.36 1.46 1.53 1.50 1.41 1.61 1.74 1.69 1.76 1.75 1.65 1.49 1.39 1.47 1.61 1.76 1.73 1.98 2.20 2.40 2.51 2.68 2.88 3.09 2.96 2.95 2.79 2.65 2.43 2.34 2.20 1.91 1.83 1.54 1.36 1.22 1.09 1.06 1.06 1.12 1.26
1.25 1.24 1.25 1.36 1.34 1.11 1.22 1.39 1.52 1.56 1.66 1.69 1.59 1.44 1.30 1.30 1.36 1.44 1.47 1.55 1.74 1.96 2.17 2.44 2.64 2.83 2.71 2.68 2.81 2.77 2.67 2.46 2.34 2.19 2.25 2.09 1.81 1.63 1.34 1.07 1.04 1.07 1.18
1.29 1.31 1.29 1.32 1.29 1.23 1.29 1.27 1.26 1.38 1.52 1.54 1.59 1.59 1.32 1.09 1.24 1.23 1.32 1.33 1.40 1.54 1.76 2.09 2.28 2.37 2.51 2.53 2.80 2.88 2.99 2.87 2.69 2.56 2.66 2.61 2.43 2.22 1.58 1.35 1.29 1.10 1.07
1.34 1.36 1.36 1.34 1.39 1.36 1.35 1.22 1.24 1.24 1.38 1.46 1.48 1.46 1.43 1.36 1.27 1.25 1.28 1.30 1.19 1.25 1.41 1.46 1.64 1.94 2.43 2.70 2.74 2.79 3.04 3.02 2.79 2.67 2.74 2.82 2.61 2.50 1.99 1.55 1.33 1.05 0.96
1.35 1.33 1.33 1.28 1.28 1.36 1.40 1.28 1.22 1.20 1.35 1.42 1.42 1.38 1.35 1.35 1.37 1.24 1.28 1.28 1.20 1.17 1.22 1.32 1.43 1.65 1.94 2.27 2.46 2.53 2.63 2.78 2.81 2.74 2.76 2.89 2.81 2.69 2.64 2.29 1.68 1.31 1.03
1.51 1.47 1.39 1.34 1.32 1.35 1.35 1.17 1.11 1.09 1.22 1.29 1.39 1.30 1.18 1.12 1.16 1.12 1.21 1.28 1.18 1.15 1.21 1.22 1.23 1.32 1.47 1.67 1.78 1.74 1.87 2.07 2.26 2.42 2.37 2.59 2.83 2.91 3.09 3.00 2.44 1.82 1.41

GEFSMA_prec_meanprecacc_282.txt.gz
Total_Precipitation_Accumulation
2.33 2.55 2.62 2.89 2.78 2.74 2.97 3.38 3.36 3.55 3.58 3.52 3.29 2.90 2.84 2.68 2.41 2.51 2.59 2.47 2.37 2.64 3.21 3.62 3.52 3.27 2.96 2.90 2.83 2.65 2.34 2.14 1.97 1.64 1.43 1.46 1.45 1.35 1.24 1.18 1.09 0.98 0.78
2.90 3.18 3.22 3.31 3.04 2.96 3.30 3.59 3.69 4.18 4.12 3.94 3.42 3.13 2.99 2.90 2.64 2.51 2.70 2.79 2.45 2.41 2.85 3.61 3.91 3.71 3.47 3.40 3.17 2.89 2.60 2.34 2.26 1.83 1.49 1.42 1.48 1.48 1.40 1.32 1.12 0.95 0.76
3.35 3.61 3.54 3.39 3.31 3.25 3.54 3.87 4.04 4.18 3.94 3.76 3.58 3.38 3.22 2.98 2.57 2.56 2.60 2.81 2.65 2.46 2.74 3.19 3.65 3.78 3.86 3.89 3.63 3.31 2.87 2.50 2.23 1.90 1.50 1.37 1.43 1.45 1.38 1.31 1.13 0.92 0.69
3.44 3.89 3.65 3.42 3.69 3.48 3.70 4.29 4.35 4.31 4.27 4.02 3.81 3.46 3.25 3.08 2.58 2.46 2.44 2.72 3.08 2.66 2.74 3.11 3.34 3.47 3.98 4.28 4.23 4.03 3.52 2.95 2.41 2.03 1.65 1.49 1.51 1.46 1.35 1.24 1.16 0.94 0.69
3.28 3.66 3.53 3.56 3.59 3.87 3.95 3.69 4.34 4.47 4.34 4.11 3.49 3.27 2.91 2.77 2.67 2.37 2.49 2.58 2.95 2.77 2.75 2.82 3.11 3.30 3.91 4.62 5.00 4.88 4.43 3.82 3.11 2.60 2.30 2.13 2.08 1.89 1.58 1.37 1.19 1.03 0.79
3.15 3.61 3.42 3.39 3.45 3.85 3.91 3.90 4.35 4.35 4.08 4.04 3.22 2.98 2.81 2.41 2.40 2.45 2.30 2.48 2.66 2.30 2.47 2.79 3.26 2.90 3.17 3.67 4.60 5.08 5.09 4.79 4.22 3.88 3.66 3.29 3.01 2.56 1.95 1.54 1.30 1.15 0.95
3.02 3.50 3.19 3.51 3.43 3.59 3.66 3.66 3.99 4.12 3.78 3.84 3.81 3.33 2.63 2.22 2.17 2.18 2.22 2.37 2.36 2.41 2.91 3.41 3.54 3.43 3.22 3.08 3.46 4.14 4.97 5.25 4.77 4.32 4.22 4.13 3.95 3.31 2.49 1.94 1.55 1.30 1.14
2.83 3.00 3.23 3.16 3.19 3.38 3.39 3.46 3.81 3.81 3.42 3.55 3.81 3.88 3.13 2.78 2.26 1.74 2.09 2.21 2.28 2.60 2.79 2.95 3.31 3.63 3.70 3.98 3.41 3.28 4.02 4.73 4.84 4.57 4.24 4.27 4.18 3.47 2.76 2.41 2.00 1.57 1.40
2.62 2.71 2.91 2.94 2.96 2.84 3.09 3.34 3.33 3.39 3.34 3.31 3.36 3.80 3.51 3.08 2.58 2.01 1.90 2.01 2.30 2.55 2.55 2.75 2.79 3.09 3.33 3.93 3.98 3.51 3.31 3.53 4.11 4.71 4.66 4.33 4.02 3.41 2.94 2.76 2.51 2.09 1.82
2.38 2.46 2.54 2.55 2.59 2.57 2.87 2.65 2.74 3.07 3.34 3.20 3.12 3.06 3.14 3.27 3.14 2.50 2.02 1.92 2.14 2.30 2.30 2.26 2.50 2.85 2.94 3.28 3.62 3.56 3.21 2.88 3.15 3.85 4.42 4.42 4.05 3.43 3.11 3.09 3.23 3.01 2.48
2.25 2.17 2.32 2.39 2.38 2.33 2.43 2.50 2.82 2.84 2.99 3.00 2.98 2.98 3.09 3.13 2.96 2.77 2.41 2.25 2.18 1.95 1.94 2.08 2.29 2.64 2.84 3.04 3.36 3.39 3.42 2.88 2.82 2.99 3.39 3.79 3.93 3.80 3.48 3.42 3.74 3.84 3.48
2.06 2.01 2.10 2.33 2.25 2.20 2.32 2.42 2.53 2.55 2.67 2.78 2.77 2.77 3.00 2.87 2.80 2.90 2.61 2.45 2.35 2.02 1.97 2.05 2.18 2.41 2.56 2.71 2.63 2.93 2.97 2.66 2.50 2.41 2.40 2.70 3.09 3.37 3.51 3.67 4.06 4.28 4.25
1.79 1.77 1.89 2.06 2.03 2.05 2.15 2.31 2.34 2.44 2.58 2.62 2.56 2.56 2.64 2.62 2.68 2.82 2.93 2.66 2.46 2.11 2.09 2.00 2.03 2.28 2.32 2.59 2.54 2.44 2.21 2.12 1.97 1.85 1.91 2.00 2.18 2.48 2.73 3.09 3.62 4.01 4.19
1.63 1.69 1.77 1.78 1.85 1.90 1.92 2.29 2.33 2.42 2.54 2.47 2.32 2.67 2.56 2.35 2.51 2.67 2.92 3.14 2.94 2.51 2.45 2.30 2.07 2.02 2.14 2.26 2.26 2.08 1.72 1.66 1.53 1.46 1.46 1.52 1.64 1.77 1.93 2.13 2.45 2.71 3.01
1.80 1.81 1.77 1.79 1.87 2.00 2.15 2.41 2.47 2.47 2.56 2.51 2.55 2.69 2.54 2.34 2.34 2.40 2.82 3.17 3.37 3.04 2.77 2.59 2.37 2.05 2.01 1.97 2.03 1.81 1.76 1.61 1.39 1.34 1.28 1.22 1.27 1.39 1.53 1.61 1.70 1.81 1.90
1.99 1.97 1.96 1.95 1.91 2.00 2.20 2.40 2.45 2.46 2.56 2.61 2.65 2.76 2.73 2.53 2.51 2.50 2.78 3.09 3.32 3.44 3.03 2.70 2.64 2.31 2.10 1.85 2.03 1.84 1.75 1.70 1.43 1.30 1.25 1.14 1.10 1.13 1.17 1.25 1.31 1.36 1.43
1.88 1.82 1.79 1.81 1.83 1.92 2.04 2.13 2.09 2.14 2.20 2.36 2.31 2.45 2.59 2.71 2.68 2.69 2.85 3.01 3.25 3.50 3.12 2.90 3.02 2.83 2.52 2.24 2.08 2.00 1.79 1.65 1.48 1.35 1.17 1.09 1.06 1.06 1.10 1.15 1.16 1.21 1.27
1.58 1.48 1.53 1.58 1.58 1.60 1.70 1.68 1.67 1.80 1.98 2.17 2.31 2.45 2.37 2.46 2.50 2.52 2.72 2.97 3.21 3.43 3.28 3.19 3.35 3.28 2.97 2.60 2.44 2.29 1.92 1.72 1.60 1.55 1.31 1.13 1.09 1.08 1.07 1.13 1.17 1.17 1.19
1.28 1.28 1.36 1.42 1.41 1.44 1.43 1.43 1.53 1.65 1.79 1.97 2.13 2.16 2.08 2.19 2.22 2.40 2.51 2.67 2.91 3.16 3.24 3.17 3.29 3.33 3.07 2.83 2.70 2.34 2.09 2.05 1.71 1.68 1.56 1.32 1.17 1.13 1.15 1.16 1.17 1.19 1.18
1.23 1.27 1.37 1.43 1.42 1.47 1.51 1.64 1.72 1.78 1.86 1.87 1.83 1.80 1.76 1.84 1.98 2.24 2.34 2.44 2.61 2.84 2.95 3.00 3.14 3.18 3.05 2.97 2.91 2.57 2.36 2.26 1.98 1.65 1.65 1.44 1.33 1.25 1.20 1.16 1.17 1.22 1.29
1.23 1.29 1.41 1.50 1.56 1.53 1.44 1.65 1.78 1.72 1.80 1.78 1.68 1.52 1.42 1.51 1.64 1.80 1.76 2.01 2.24 2.44 2.56 2.72 2.91 3.12 2.99 2.99 2.83 2.69 2.48 2.40 2.27 1.96 1.90 1.62 1.44 1.29 1.16 1.12 1.12 1.18 1.32
1.28 1.27 1.28 1.38 1.37 1.14 1.26 1.45 1.57 1.60 1.70 1.73 1.61 1.46 1.33 1.34 1.40 1.47 1.51 1.59 1.77 1.99 2.20 2.48 2.67 2.85 2.73 2.71 2.84 2.80 2.70 2.50 2.41 2.26 2.33 2.18 1.89 1.70 1.41 1.13 1.10 1.12 1.22
1.32 1.33 1.31 1.34 1.32 1.26 1.34 1.33 1.33 1.43 1.55 1.57 1.62 1.62 1.35 1.12 1.27 1.26 1.35 1.35 1.43 1.57 1.80 2.13 2.31 2.39 2.54 2.57 2.84 2.90 3.01 2.89 2.71 2.61 2.73 2.68 2.50 2.29 1.64 1.42 1.36 1.15 1.10
1.35 1.38 1.38 1.36 1.42 1.40 1.41 1.28 1.30 1.30 1.42 1.49 1.51 1.49 1.46 1.39 1.30 1.28 1.32 1.33 1.22 1.28 1.44 1.50 1.68 1.98 2.46 2.74 2.77 2.82 3.06 3.04 2.81 2.70 2.78 2.86 2.66 2.54 2.02 1.58 1.37 1.09 0.99
1.37 1.35 1.34 1.30 1.31 1.39 1.45 1.33 1.28 1.25 1.39 1.46 1.46 1.42 1.38 1.38 1.40 1.27 1.31 1.30 1.22 1.19 1.25 1.36 1.47 1.69 1.98 2.30 2.49 2.56 2.65 2.80 2.82 2.76 2.79 2.92 2.84 2.73 2.68 2.32 1.70 1.33 1.05
1.52 1.48 1.41 1.37 1.35 1.38 1.39 1.21 1.15 1.13 1.26 1.34 1.43 1.34 1.22 1.16 1.20 1.16 1.23 1.31 1.21 1.18 1.24 1.25 1.26 1.35 1.51 1.71 1.82 1.78 1.90 2.09 2.27 2.44 2.40 2.63 2.88 2.95 3.12 3.03 2.46 1.84 1.44

GEFSMA_prec_meanprecacc_288.txt.gz
Total_Precipitation_Accumulation
2.35 2.59 2.69 3.01 2.93 2.91 3.18 3.57 3.52 3.67 3.67 3.61 3.36 2.98 2.90 2.72 2.45 2.53 2.61 2.50 2.42 2.70 3.29 3.72 3.60 3.36 3.06 2.99 2.93 2.74 2.41 2.19 2.01 1.69 1.48 1.51 1.49 1.37 1.27 1.20 1.11 1.01 0.82
2.92 3.22 3.27 3.40 3.20 3.14 3.49 3.77 3.84 4.31 4.22 4.03 3.50 3.20 3.04 2.94 2.67 2.54 2.72 2.83 2.50 2.46 2.91 3.69 3.99 3.80 3.59 3.51 3.28 2.99 2.67 2.40 2.30 1.87 1.53 1.45 1.51 1.50 1.41 1.34 1.14 0.98 0.79
3.39 3.66 3.60 3.48 3.46 3.47 3.75 3.99 4.13 4.27 4.01 3.82 3.64 3.42 3.25 3.01 2.60 2.59 2.63 2.83 2.67 2.50 2.81 3.26 3.74 3.87 3.98 4.02 3.75 3.40 2.95 2.55 2.28 1.95 1.55 1.41 1.46 1.47 1.40 1.33 1.15 0.94 0.72
3.48 3.93 3.69 3.49 3.81 3.65 3.81 4.35 4.40 4.36 4.31 4.07 3.86 3.51 3.29 3.11 2.61 2.48 2.46 2.74 3.10 2.68 2.79 3.19 3.43 3.55 4.10 4.41 4.34 4.14 3.61 3.02 2.47 2.08 1.71 1.54 1.55 1.50 1.39 1.27 1.18 0.96 0.71
3.32 3.69 3.55 3.59 3.64 3.92 4.00 3.72 4.37 4.49 4.37 4.13 3.52 3.32 2.95 2.81 2.69 2.39 2.51 2.60 2.97 2.80 2.78 2.88 3.20 3.39 4.01 4.74 5.12 5.01 4.54 3.90 3.17 2.67 2.37 2.19 2.15 1.96 1.63 1.41 1.23 1.06 0.81
3.18 3.64 3.44 3.42 3.48 3.87 3.95 3.94 4.37 4.37 4.10 4.08 3.26 3.02 2.85 2.44 2.42 2.47 2.32 2.50 2.69 2.34 2.52 2.84 3.31 2.96 3.25 3.76 4.70 5.18 5.18 4.88 4.30 3.95 3.73 3.38 3.08 2.64 2.02 1.60 1.35 1.20 0.99
3.06 3.52 3.21 3.53 3.44 3.60 3.67 3.68 4.02 4.15 3.80 3.87 3.84 3.36 2.66 2.23 2.19 2.20 2.24 2.41 2.38 2.44 2.96 3.48 3.62 3.50 3.28 3.14 3.53 4.22 5.05 5.34 4.87 4.42 4.32 4.22 4.04 3.40 2.57 2.00 1.62 1.36 1.21
2.87 3.03 3.27 3.17 3.20 3.39 3.40 3.48 3.83 3.84 3.45 3.58 3.83 3.90 3.16 2.80 2.29 1.77 2.12 2.25 2.31 2.64 2.83 3.00 3.36 3.70 3.77 4.04 3.47 3.37 4.11 4.83 4.98 4.70 4.36 4.38 4.27 3.55 2.83 2.48 2.06 1.65 1.49
2.67 2.76 2.95 2.97 2.97 2.86 3.10 3.35 3.36 3.42 3.38 3.35 3.40 3.83 3.53 3.10 2.61 2.04 1.93 2.03 2.33 2.58 2.58 2.77 2.82 3.14 3.38 4.00 4.04 3.57 3.40 3.63 4.22 4.84 4.77 4.43 4.12 3.49 3.01 2.83 2.59 2.18 1.91
2.44 2.53 2.59 2.59 2.62 2.59 2.89 2.67 2.76 3.11 3.37 3.23 3.15 3.10 3.16 3.29 3.16 2.52 2.03 1.94 2.17 2.33 2.33 2.29 2.52 2.87 2.97 3.32 3.69 3.66 3.32 3.00 3.24 3.92 4.49 4.50 4.14 3.53 3.20 3.19 3.35 3.12 2.58
2.33 2.25 2.39 2.45 2.41 2.35 2.46 2.53 2.85 2.87 3.02 3.03 3.02 3.01 3.11 3.15 2.98 2.79 2.43 2.26 2.20 1.97 1.96 2.11 2.32 2.67 2.85 3.07 3.42 3.49 3.54 3.00 2.92 3.05 3.45 3.86 4.01 3.90 3.60 3.56 3.90 3.99 3.59
2.17 2.09 2.16 2.37 2.28 2.23 2.35 2.43 2.55 2.58 2.69 2.80 2.79 2.79 3.02 2.90 2.83 2.93 2.63 2.46 2.36 2.04 1.98 2.08 2.20 2.43 2.58 2.74 2.66 2.97 3.03 2.75 2.62 2.52 2.49 2.78 3.18 3.48 3.63 3.80 4.20 4.40 4.34
1.85 1.83 1.93 2.10 2.07 2.07 2.17 2.33 2.36 2.47 2.60 2.64 2.57 2.58 2.66 2.65 2.71 2.85 2.96 2.68 2.47 2.12 2.10 2.01 2.04 2.29 2.33 2.60 2.57 2.47 2.23 2.17 2.05 1.95 1.98 2.06 2.26 2.57 2.82 3.19 3.74 4.14 4.30
1.64 1.71 1.79 1.80 1.87 1.93 1.94 2.31 2.35 2.44 2.56 2.48 2.33 2.68 2.59 2.38 2.55 2.69 2.95 3.18 2.96 2.52 2.46 2.31 2.08 2.03 2.16 2.28 2.31 2.12 1.76 1.71 1.57 1.52 1.53 1.58 1.69 1.82 2.00 2.21 2.54 2.81 3.11
1.81 1.82 1.79 1.81 1.90 2.04 2.19 2.45 2.50 2.51 2.60 2.52 2.56 2.70 2.55 2.35 2.35 2.42 2.85 3.22 3.41 3.05 2.78 2.60 2.39 2.07 2.02 1.99 2.07 1.84 1.79 1.65 1.42 1.38 1.33 1.27 1.31 1.43 1.58 1.67 1.76 1.89 1.98
2.00 1.98 1.97 1.96 1.93 2.02 2.23 2.44 2.49 2.50 2.60 2.63 2.66 2.77 2.74 2.54 2.53 2.53 2.81 3.13 3.37 3.48 3.05 2.72 2.66 2.33 2.12 1.88 2.05 1.86 1.77 1.73 1.47 1.35 1.30 1.19 1.14 1.17 1.21 1.29 1.35 1.40 1.48
1.89 1.83 1.79 1.81 1.84 1.94 2.08 2.17 2.13 2.21 2.25 2.40 2.34 2.47 2.61 2.73 2.70 2.72 2.88 3.04 3.29 3.55 3.16 2.91 3.04 2.85 2.54 2.25 2.10 2.02 1.82 1.68 1.54 1.42 1.22 1.16 1.13 1.11 1.15 1.19 1.19 1.24 1.30
1.59 1.49 1.54 1.59 1.59 1.62 1.73 1.72 1.73 1.87 2.05 2.21 2.34 2.47 2.39 2.50 2.52 2.55 2.76 3.00 3.25 3.48 3.33 3.23 3.38 3.31 3.00 2.62 2.46 2.31 1.95 1.77 1.68 1.65 1.40 1.24 1.18 1.14 1.12 1.17 1.20 1.20 1.21
1.28 1.29 1.37 1.43 1.42 1.46 1.46 1.46 1.57 1.70 1.84 2.02 2.17 2.19 2.10 2.23 2.25 2.43 2.53 2.70 2.94 3.20 3.29 3.23 3.34 3.38 3.11 2.87 2.74 2.38 2.13 2.09 1.78 1.78 1.72 1.44 1.25 1.19 1.20 1.20 1.20 1.22 1.22
1.24 1.27 1.38 1.45 1.44 1.49 1.53 1.66 1.74 1.79 1.89 1.90 1.86 1.83 1.79 1.87 2.00 2.26 2.37 2.47 2.65 2.88 3.01 3.06 3.20 3.24 3.11 3.03 2.98 2.63 2.41 2.30 2.03 1.71 1.72 1.53 1.42 1.34 1.27 1.21 1.21 1.25 1.32
1.23 1.30 1.42 1.50 1.57 1.54 1.46 1.66 1.79 1.73 1.81 1.80 1.70 1.53 1.44 1.53 1.66 1.82 1.79 2.04 2.28 2.48 2.61 2.77 2.97 3.18 3.04 3.05 2.89 2.75 2.54 2.44 2.32 2.01 1.95 1.69 1.54 1.39 1.25 1.19 1.18 1.23 1.36
1.29 1.28 1.28 1.39 1.38 1.15 1.27 1.47 1.59 1.61 1.71 1.74 1.62 1.47 1.35 1.36 1.42 1.50 1.55 1.63 1.82 2.03 2.23 2.51 2.71 2.89 2.76 2.75 2.88 2.85 2.75 2.54 2.45 2.31 2.38 2.24 1.97 1.81 1.51 1.22 1.18 1.18 1.27
1.33 1.34 1.32 1.35 1.33 1.28 1.37 1.36 1.36 1.45 1.57 1.58 1.63 1.63 1.36 1.13 1.29 1.28 1.38 1.39 1.46 1.61 1.83 2.16 2.34 2.41 2.57 2.60 2.88 2.95 3.05 2.92 2.74 2.64 2.76 2.72 2.56 2.36 1.72 1.51 1.45 1.22 1.15
1.36 1.38 1.39 1.37 1.43 1.42 1.43 1.30 1.32 1.32 1.43 1.50 1.52 1.50 1.47 1.40 1.32 1.31 1.34 1.35 1.24 1.30 1.48 1.53 1.70 2.00 2.50 2.79 2.81 2.86 3.11 3.08 2.84 2.74 2.81 2.89 2.70 2.59 2.07 1.64 1.43 1.16 1.04
1.37 1.35 1.35 1.31 1.32 1.41 1.47 1.34 1.30 1.27 1.41 1.47 1.48 1.44 1.40 1.39 1.44 1.31 1.34 1.32 1.24 1.21 1.28 1.39 1.50 1.72 2.02 2.35 2.55 2.62 2.71 2.84 2.86 2.80 2.83 2.94 2.86 2.75 2.71 2.35 1.74 1.37 1.09
1.53 1.49 1.41 1.38 1.36 1.39 1.41 1.24 1.18 1.15 1.28 1.36 1.44 1.36 1.25 1.18 1.25 1.22 1.28 1.35 1.23 1.20 1.27 1.28 1.28 1.38 1.54 1.74 1.85 1.82 1.96 2.13 2.30 2.48 2.44 2.66 2.90 2.96 3.14 3.05 2.48 1.86 1.46

GEFSMA_prec_meanprecacc_294.txt.gz
Total_Precipitation_Accumulation
2.41 2.67 2.78 3.11 3.02 3.03 3.31 3.72 3.71 3.92 3.88 3.75 3.49 3.09 3.00 2.80 2.50 2.59 2.66 2.55 2.46 2.74 3.36 3.82 3.74 3.47 3.14 3.07 3.01 2.82 2.49 2.26 2.07 1.74 1.53 1.56 1.55 1.43 1.31 1.23 1.14 1.04 0.86
2.99 3.31 3.36 3.48 3.28 3.23 3.61 3.92 4.01 4.51 4.40 4.15 3.60 3.29 3.12 3.01 2.73 2.59 2.77 2.88 2.55 2.52 3.00 3.77 4.08 3.89 3.66 3.60 3.39 3.10 2.78 2.49 2.38 1.94 1.59 1.50 1.57 1.56 1.46 1.38 1.17 1.01 0.82
3.45 3.74 3.69 3.59 3.58 3.57 3.86 4.08 4.25 4.38 4.11 3.91 3.72 3.49 3.32 3.09 2.68 2.66 2.68 2.88 2.71 2.54 2.88 3.34 3.82 3.95 4.06 4.13 3.87 3.54 3.09 2.69 2.38 2.04 1.63 1.48 1.53 1.53 1.46 1.38 1.20 0.98 0.75
3.53 4.01 3.77 3.58 3.91 3.77 3.92 4.46 4.52 4.45 4.39 4.15 3.92 3.58 3.37 3.19 2.67 2.53 2.50 2.78 3.15 2.73 2.84 3.24 3.50 3.64 4.22 4.56 4.49 4.29 3.76 3.14 2.55 2.15 1.77 1.60 1.63 1.58 1.48 1.35 1.24 1.02 0.76
3.36 3.75 3.62 3.67 3.72 4.03 4.13 3.82 4.47 4.59 4.45 4.20 3.58 3.37 3.01 2.87 2.74 2.42 2.54 2.63 3.01 2.86 2.86 2.94 3.26 3.47 4.13 4.87 5.25 5.18 4.70 4.02 3.26 2.73 2.43 2.25 2.23 2.05 1.75 1.53 1.34 1.13 0.86
3.21 3.68 3.50 3.49 3.55 3.97 4.07 4.04 4.46 4.45 4.16 4.13 3.29 3.07 2.90 2.49 2.46 2.50 2.34 2.53 2.72 2.38 2.57 2.90 3.38 3.04 3.35 3.85 4.78 5.27 5.31 5.04 4.44 4.06 3.83 3.46 3.16 2.73 2.12 1.69 1.43 1.27 1.06
3.11 3.58 3.26 3.60 3.52 3.69 3.78 3.77 4.09 4.21 3.85 3.91 3.90 3.42 2.71 2.28 2.23 2.23 2.26 2.44 2.42 2.48 2.99 3.52 3.68 3.60 3.41 3.23 3.60 4.29 5.13 5.44 4.99 4.55 4.48 4.33 4.12 3.47 2.64 2.05 1.66 1.42 1.26
2.92 3.09 3.33 3.25 3.27 3.46 3.47 3.54 3.90 3.89 3.49 3.63 3.89 3.97 3.22 2.87 2.33 1.80 2.14 2.27 2.33 2.66 2.86 3.03 3.43 3.80 3.89 4.17 3.56 3.46 4.19 4.91 5.06 4.78 4.46 4.46 4.35 3.61 2.88 2.51 2.10 1.69 1.53
2.71 2.80 2.99 3.01 3.02 2.89 3.15 3.41 3.41 3.47 3.43 3.40 3.46 3.90 3.60 3.18 2.67 2.10 1.97 2.05 2.35 2.61 2.61 2.81 2.87 3.20 3.46 4.10 4.16 3.68 3.49 3.73 4.29 4.90 4.84 4.49 4.16 3.54 3.06 2.88 2.65 2.23 1.96
2.49 2.59 2.65 2.63 2.67 2.62 2.93 2.71 2.80 3.15 3.42 3.29 3.20 3.16 3.22 3.36 3.24 2.60 2.09 1.97 2.20 2.36 2.36 2.32 2.55 2.93 3.03 3.38 3.76 3.73 3.38 3.07 3.29 3.98 4.55 4.56 4.20 3.58 3.25 3.25 3.41 3.19 2.66
2.41 2.34 2.48 2.51 2.47 2.39 2.50 2.58 2.91 2.91 3.07 3.09 3.08 3.08 3.17 3.21 3.05 2.86 2.48 2.31 2.24 2.00 1.98 2.14 2.37 2.71 2.89 3.11 3.46 3.52 3.56 3.03 2.96 3.09 3.50 3.92 4.08 3.97 3.66 3.63 4.00 4.09 3.71
2.37 2.28 2.33 2.47 2.35 2.29 2.41 2.50 2.61 2.61 2.72 2.85 2.84 2.84 3.07 2.95 2.90 3.01 2.69 2.52 2.40 2.06 2.01 2.10 2.22 2.47 2.62 2.77 2.68 2.99 3.04 2.76 2.64 2.53 2.51 2.81 3.22 3.54 3.69 3.87 4.29 4.51 4.43
1.94 2.00 2.16 2.25 2.15 2.13 2.22 2.38 2.41 2.50 2.63 2.66 2.61 2.62 2.70 2.69 2.78 2.94 3.04 2.73 2.51 2.15 2.12 2.03 2.05 2.30 2.35 2.64 2.60 2.50 2.24 2.18 2.06 1.96 1.99 2.08 2.29 2.63 2.88 3.24 3.81 4.23 4.39
1.66 1.74 1.87 1.91 1.95 1.97 1.97 2.35 2.38 2.47 2.58 2.51 2.35 2.72 2.64 2.42 2.60 2.77 3.04 3.26 3.01 2.56 2.49 2.34 2.10 2.05 2.17 2.30 2.33 2.15 1.78 1.73 1.59 1.54 1.54 1.60 1.71 1.85 2.04 2.26 2.60 2.88 3.18
1.82 1.84 1.81 1.83 1.93 2.07 2.23 2.50 2.52 2.55 2.64 2.55 2.58 2.74 2.59 2.40 2.40 2.49 2.93 3.29 3.47 3.10 2.83 2.65 2.44 2.09 2.03 2.01 2.09 1.86 1.81 1.68 1.44 1.40 1.36 1.31 1.34 1.45 1.61 1.71 1.80 1.92 2.02
2.01 2.00 1.98 1.98 1.94 2.03 2.25 2.48 2.52 2.55 2.65 2.67 2.71 2.82 2.79 2.58 2.58 2.59 2.89 3.21 3.44 3.54 3.09 2.76 2.71 2.35 2.14 1.90 2.07 1.88 1.80 1.76 1.50 1.37 1.32 1.22 1.16 1.18 1.23 1.31 1.38 1.44 1.52
1.91 1.85 1.81 1.83 1.85 1.94 2.08 2.18 2.15 2.23 2.30 2.46 2.39 2.52 2.66 2.78 2.75 2.76 2.95 3.12 3.35 3.61 3.22 2.96 3.07 2.88 2.57 2.29 2.13 2.05 1.85 1.71 1.57 1.45 1.26 1.21 1.16 1.13 1.17 1.21 1.23 1.29 1.35
1.60 1.50 1.56 1.61 1.60 1.63 1.74 1.73 1.74 1.89 2.08 2.27 2.41 2.55 2.45 2.55 2.58 2.61 2.82 3.07 3.31 3.55 3.39 3.28 3.42 3.35 3.03 2.66 2.51 2.35 1.97 1.79 1.70 1.67 1.44 1.29 1.24 1.19 1.15 1.20 1.23 1.23 1.25
1.29 1.29 1.38 1.44 1.44 1.48 1.48 1.48 1.58 1.71 1.86 2.05 2.23 2.25 2.16 2.28 2.30 2.47 2.58 2.74 2.99 3.26 3.36 3.28 3.38 3.42 3.15 2.90 2.76 2.40 2.14 2.12 1.81 1.82 1.78 1.50 1.30 1.24 1.24 1.23 1.23 1.26 1.25
1.25 1.28 1.39 1.46 1.46 1.51 1.55 1.68 1.76 1.81 1.91 1.92 1.89 1.86 1.82 1.89 2.03 2.30 2.41 2.51 2.69 2.93 3.06 3.10 3.24 3.28 3.15 3.06 3.01 2.67 2.45 2.34 2.08 1.75 1.77 1.59 1.47 1.38 1.30 1.25 1.25 1.29 1.35
1.23 1.30 1.42 1.51 1.58 1.55 1.46 1.68 1.81 1.75 1.82 1.81 1.72 1.56 1.46 1.54 1.68 1.85 1.82 2.08 2.32 2.51 2.64 2.80 3.00 3.21 3.08 3.08 2.93 2.80 2.58 2.50 2.38 2.06 2.00 1.73 1.57 1.42 1.29 1.23 1.22 1.27 1.40
1.29 1.28 1.29 1.39 1.38 1.16 1.28 1.49 1.61 1.63 1.72 1.75 1.63 1.49 1.36 1.37 1.43 1.52 1.56 1.65 1.85 2.06 2.26 2.55 2.75 2.93 2.80 2.78 2.92 2.88 2.79 2.60 2.52 2.37 2.43 2.30 2.02 1.86 1.56 1.27 1.21 1.21 1.30
1.34 1.34 1.32 1.36 1.33 1.29 1.37 1.37 1.37 1.46 1.58 1.59 1.64 1.65 1.37 1.15 1.31 1.31 1.40 1.41 1.49 1.63 1.87 2.20 2.38 2.45 2.61 2.64 2.92 2.98 3.09 2.96 2.79 2.69 2.81 2.77 2.62 2.43 1.78 1.56 1.49 1.26 1.18
1.36 1.38 1.39 1.37 1.43 1.42 1.44 1.31 1.33 1.33 1.44 1.51 1.53 1.52 1.49 1.41 1.35 1.34 1.38 1.38 1.26 1.32 1.49 1.54 1.73 2.04 2.53 2.82 2.84 2.89 3.15 3.12 2.88 2.78 2.84 2.92 2.73 2.64 2.13 1.70 1.48 1.20 1.09
1.38 1.36 1.35 1.32 1.32 1.41 1.47 1.35 1.31 1.28 1.42 1.48 1.48 1.45 1.41 1.40 1.46 1.34 1.38 1.37 1.28 1.24 1.30 1.41 1.53 1.75 2.05 2.38 2.58 2.66 2.76 2.89 2.90 2.84 2.87 2.99 2.91 2.81 2.77 2.42 1.80 1.43 1.14
1.55 1.50 1.42 1.38 1.36 1.40 1.42 1.24 1.19 1.16 1.29 1.37 1.45 1.37 1.26 1.20 1.26 1.23 1.32 1.40 1.29 1.25 1.32 1.34 1.34 1.43 1.59 1.79 1.90 1.88 2.03 2.21 2.36 2.53 2.50 2.72 2.96 3.03 3.23 3.13 2.55 1.92 1.52